Wind_Speed
29 29 32 27 21 18 10 14 15 14 15 14 16 17 16 17 19 14 13 13 12 12 12 15 14 15 16 16 14 13 15 14 17 17 16 16 15 16 16 17 18 19 21 22
27 31 24 21 21 20 18 13 13 12 12 14 17 21 18 18 18 16 15 13 13 14 14 17 18 18 17 17 17 17 15 17 17 18 17 19 19 19 19 20 21 21 22 24
29 21 24 24 23 22 20 17 15 11 9 12 17 25 19 18 18 16 17 14 14 14 14 18 19 19 19 19 19 20 19 19 19 21 22 21 22 21 21 21 22 24 26 28
21 26 20 24 23 21 21 18 16 13 11 6 8 8 14 12 11 14 16 17 18 19 18 17 18 18 17 18 18 20 22 24 24 24 24 24 24 24 21 24 24 26 29 31
22 23 23 22 23 19 18 15 14 11 11 11 14 8 4 2 7 13 14 15 17 18 19 18 18 17 18 18 18 19 21 22 23 23 24 24 24 23 23 23 24 26 27 29
21 17 19 20 19 19 15 14 10 8 9 5 11 12 6 4 6 7 9 11 11 11 12 13 11 8 7 8 9 11 13 16 20 22 23 23 22 23 23 24 24 24 25 26
26 19 20 20 21 20 20 14 3 1 1 4 6 10 15 6 6 8 8 9 9 8 8 7 7 9 11 14 14 14 14 16 18 20 21 22 22 23 23 22 23 23 24 24
27 14 28 24 26 27 24 23 8 7 4 2 8 7 4 15 18 18 15 11 10 7 7 6 7 8 10 13 16 18 17 16 16 19 20 19 19 19 19 21 23 22 22 20
28 20 26 22 25 24 25 25 22 4 2 0 5 8 7 9 11 12 18 16 12 8 9 10 11 10 14 10 13 15 15 16 16 16 17 18 21 21 21 21 20 19 20 20
16 12 18 27 25 24 23 26 15 11 3 3 4 7 10 17 18 12 14 15 13 13 14 14 15 14 14 12 13 13 14 14 14 14 15 17 18 19 20 21 22 24 26 27
27 17 15 28 31 35 31 24 17 13 8 5 2 5 15 12 16 19 20 17 17 13 11 10 10 10 11 11 11 12 13 14 15 16 17 19 22 24 26 27 29 32 34 36
36 20 14 30 28 32 33 32 34 19 8 13 5 7 9 16 18 17 18 19 19 16 15 15 14 12 11 11 12 13 14 17 19 20 22 25 26 29 31 34 36 40 43 45
40 22 14 11 22 31 35 35 33 33 17 24 10 8 16 21 20 22 24 23 22 21 21 18 17 17 16 16 17 20 24 27 28 30 33 35 36 37 39 38 42 43 46 46
33 35 31 28 22 29 36 37 36 33 27 28 29 18 22 18 22 24 25 26 25 22 21 21 23 24 26 28 31 34 37 38 39 41 40 39 41 38 39 42 43 43 42 43
31 33 36 34 29 19 32 39 36 38 41 27 36 33 29 24 23 27 29 26 24 25 26 27 30 33 37 39 41 39 38 37 35 35 36 39 39 38 41 41 42 43 44 45
34 19 32 33 31 28 28 26 33 40 42 43 45 38 30 27 28 33 32 29 29 32 36 40 42 45 45 41 36 35 34 34 36 38 40 42 44 45 45 45 45 45 47 48
38 28 23 19 26 24 24 41 37 38 41 42 44 42 39 34 30 31 35 38 40 42 39 37 38 37 33 33 33 35 38 41 43 44 44 44 45 45 45 46 48 48 49 52
41 35 23 16 22 7 24 30 37 37 34 34 36 36 33 30 29 31 33 35 36 36 35 33 33 32 32 36 40 39 38 39 40 41 42 42 44 46 48 49 51 52 52 53
34 37 16 10 15 8 19 21 23 24 30 32 34 32 32 32 32 33 33 31 32 32 32 33 33 35 38 40 41 41 40 40 41 43 45 46 47 47 48 49 50 50 52 52
21 23 26 16 7 8 15 19 22 21 28 25 22 22 23 22 24 27 28 29 30 32 34 36 39 38 39 40 40 41 42 43 45 45 45 47 50 52 53 54 56 57 57 57
27 33 31 24 13 12 19 13 17 19 14 12 16 19 24 26 27 26 28 30 32 34 34 36 39 41 42 44 46 47 48 48 50 53 55 55 53 52 52 53 51 52 52 51
34 19 20 20 11 14 18 21 25 24 22 22 20 20 21 23 26 28 29 29 32 36 39 41 43 44 45 48 50 51 52 55 56 56 55 55 54 53 53 53 53 52 51 50
31 31 29 22 21 24 16 21 23 23 23 21 19 16 16 21 26 30 34 35 38 40 42 44 46 48 49 50 54 56 57 57 57 56 55 55 53 52 51 52 50 48 47 47
30 28 31 26 28 26 27 28 28 25 25 24 26 28 29 31 34 36 38 40 43 45 47 49 52 54 55 56 56 57 58 58 58 58 56 55 54 52 50 49 48 47 45 44
29 29 31 32 31 24 26 29 29 26 25 27 30 33 36 37 37 40 42 43 46 50 53 55 55 56 55 54 53 53 55 57 58 59 59 59 57 54 52 49 47 46 45 46
35 36 35 37 34 33 30 28 30 30 30 32 34 33 35 36 39 42 46 51 53 52 52 51 50 50 51 52 53 54 56 59 60 61 59 58 55 52 50 47 45 45 43 43
Wind_Direction
196 198 204 207 206 213 207 217 229 227 231 242 246 243 236 246 252 251 252 260 265 262 238 248 247 250 253 252 253 251 248 245 244 248 251 254 257 255 254 255 256 257 261 266
202 210 210 211 217 220 226 228 225 228 235 244 255 255 248 244 253 256 256 262 261 259 251 249 250 251 255 256 252 249 249 247 251 252 251 252 252 256 258 261 265 269 271 273
206 215 211 213 217 218 225 230 227 225 238 257 275 276 265 257 257 259 258 253 250 245 246 250 250 253 255 258 257 255 251 249 248 252 252 254 257 258 262 265 266 266 265 266
212 216 212 214 219 221 224 225 228 244 256 256 276 288 266 267 256 260 255 247 243 246 247 247 253 257 261 261 259 254 252 251 248 248 252 255 258 261 263 264 264 267 268 269
199 208 210 211 219 217 224 225 225 229 244 264 263 266 291 211 262 263 254 243 241 241 246 246 251 258 263 262 259 252 250 250 249 252 252 250 255 258 261 268 275 278 275 274
208 202 206 218 211 207 215 204 200 222 247 260 238 221 276 238 203 217 231 222 219 224 232 237 234 235 254 250 242 240 247 248 248 251 255 259 259 262 266 273 275 273 273 277
208 207 209 204 201 197 199 190 160 233 183 218 191 207 238 189 179 201 195 197 195 202 211 230 248 255 251 245 247 248 249 247 245 246 248 254 260 265 271 271 271 273 275 277
196 201 208 207 205 207 204 201 183 194 189 217 200 233 227 227 241 242 230 222 226 234 231 234 255 269 279 268 263 262 258 254 248 248 250 253 259 265 266 269 274 276 275 274
200 205 203 206 212 208 202 204 218 191 141 34 212 231 205 206 206 221 224 227 238 254 260 267 280 287 272 267 259 256 257 257 253 249 253 258 261 262 264 265 265 264 263 263
214 197 200 200 200 205 216 213 193 197 130 229 243 227 211 212 228 226 220 234 248 252 260 266 272 260 258 248 249 247 253 255 256 255 254 257 258 259 258 257 259 261 262 264
214 207 195 197 203 209 203 200 203 198 205 162 165 232 200 207 208 214 219 217 226 218 216 221 216 218 226 232 238 244 252 258 259 261 265 269 270 269 268 267 267 270 271 272
214 218 209 205 211 215 221 221 215 200 199 213 230 218 194 215 223 223 231 232 234 217 215 209 211 218 229 240 252 263 272 277 280 280 279 278 278 279 279 279 281 280 280 279
213 211 183 196 221 220 220 221 221 220 230 230 192 235 220 232 230 228 228 226 226 225 219 223 232 239 248 262 275 281 289 295 295 292 289 287 285 285 285 286 284 282 281 281
215 217 214 210 220 216 216 221 222 224 227 235 231 228 203 216 221 226 228 223 223 226 239 253 258 261 268 277 285 290 294 297 297 296 295 294 292 293 295 291 291 290 290 290
209 216 224 227 232 228 231 228 225 224 228 223 244 240 236 232 235 235 236 233 239 248 256 266 274 278 281 287 292 295 294 293 292 291 291 290 292 294 291 291 291 291 290 289
205 214 220 224 229 232 230 227 231 235 232 235 243 247 251 236 239 238 237 249 259 273 276 282 284 283 285 286 287 287 286 284 284 286 289 291 289 288 289 289 289 289 289 290
206 210 204 203 213 213 224 231 227 229 232 237 242 250 251 242 239 238 253 261 268 275 277 275 278 281 277 277 278 280 283 284 285 285 286 286 284 283 283 284 285 286 287 289
206 207 202 206 190 204 233 235 231 233 236 239 245 251 258 258 257 256 259 266 272 275 278 277 277 275 276 283 288 288 286 286 286 286 288 289 288 286 286 286 287 289 290 290
201 199 195 176 192 225 226 221 215 226 244 248 246 249 255 258 259 263 265 268 273 276 278 281 283 285 290 293 293 293 293 293 293 294 295 296 297 297 298 298 299 300 300 299
221 214 216 201 187 201 247 249 251 246 248 248 238 240 246 248 257 267 266 268 272 277 282 287 291 294 295 295 295 295 295 297 297 297 297 298 299 298 298 297 297 297 297 295
189 204 203 198 205 232 240 237 193 193 249 215 222 237 253 262 265 268 271 274 277 281 284 286 289 291 293 295 296 298 299 301 301 302 303 304 305 304 302 302 301 300 299 297
214 210 220 231 234 256 243 214 222 244 250 260 259 259 257 261 264 265 269 274 278 282 286 289 291 292 294 295 296 298 301 301 302 303 303 303 303 302 301 301 301 301 300 299
208 212 209 216 225 230 236 239 253 258 261 271 269 259 254 270 276 278 283 283 285 287 289 290 291 293 295 296 297 299 300 300 300 300 301 301 301 302 301 301 301 300 300 299
216 220 220 225 233 235 244 254 259 264 265 267 270 276 279 280 280 279 279 282 285 288 290 292 293 295 296 297 297 299 300 300 300 300 300 300 300 300 299 298 298 297 295 295
228 230 231 230 235 238 243 251 259 261 268 275 277 278 277 276 275 276 277 281 285 287 288 290 291 292 293 293 294 296 298 297 297 298 298 299 299 299 298 297 296 294 293 294
238 241 240 245 251 251 256 257 261 267 272 274 271 268 265 265 266 271 276 281 286 288 289 290 291 293 293 294 294 294 294 295 297 297 297 298 297 296 294 293 290 293 296 297
Height
3117 3121 3123 3129 3133 3136 3139 3142 3146 3146 3147 3150 3150 3150 3153 3154 3153 3155 3157 3158 3159 3160 3162 3162 3163 3163 3164 3166 3167 3168 3169 3170 3171 3172 3173 3174 3176 3176 3177 3178 3179 3179 3179 3178
3117 3117 3125 3129 3131 3135 3138 3139 3143 3144 3145 3147 3146 3146 3148 3150 3150 3152 3153 3154 3155 3155 3156 3156 3158 3159 3161 3162 3163 3164 3165 3166 3167 3168 3170 3169 3171 3171 3172 3173 3173 3174 3174 3173
3111 3117 3121 3124 3128 3132 3135 3137 3140 3142 3143 3144 3144 3142 3143 3146 3147 3149 3149 3150 3150 3151 3151 3152 3152 3154 3156 3158 3159 3161 3162 3162 3163 3164 3164 3165 3165 3166 3167 3168 3168 3167 3166 3166
3111 3114 3116 3120 3126 3130 3132 3135 3138 3139 3141 3143 3143 3141 3139 3141 3144 3144 3144 3145 3146 3146 3147 3148 3149 3150 3152 3153 3154 3155 3156 3157 3158 3159 3159 3160 3161 3161 3162 3161 3161 3161 3160 3159
3106 3111 3112 3116 3122 3127 3130 3133 3135 3135 3139 3140 3140 3143 3134 3137 3140 3139 3139 3140 3141 3142 3143 3144 3145 3145 3147 3147 3148 3150 3151 3151 3153 3154 3155 3156 3156 3157 3156 3156 3156 3155 3155 3153
3104 3106 3109 3113 3119 3122 3127 3131 3134 3135 3137 3138 3136 3138 3133 3133 3134 3134 3135 3135 3136 3138 3140 3140 3142 3142 3143 3143 3144 3145 3146 3147 3148 3149 3150 3151 3151 3151 3151 3151 3151 3150 3148 3147
3098 3101 3105 3111 3116 3118 3123 3129 3133 3136 3136 3134 3132 3133 3130 3132 3131 3133 3133 3134 3135 3136 3138 3138 3139 3139 3140 3140 3141 3142 3143 3144 3144 3145 3146 3146 3146 3146 3146 3145 3144 3144 3143 3142
3091 3099 3100 3105 3108 3111 3120 3123 3125 3132 3134 3129 3130 3127 3125 3126 3127 3129 3131 3132 3133 3134 3135 3136 3136 3137 3138 3138 3139 3139 3139 3140 3140 3140 3141 3142 3142 3142 3142 3140 3140 3139 3138 3137
3087 3093 3095 3100 3105 3112 3114 3117 3122 3122 3126 3127 3125 3124 3125 3124 3123 3125 3128 3129 3130 3131 3132 3133 3134 3134 3135 3135 3134 3135 3136 3137 3137 3138 3138 3138 3138 3138 3137 3136 3135 3134 3133 3132
3084 3090 3092 3096 3102 3104 3107 3115 3118 3119 3127 3131 3121 3120 3119 3119 3120 3123 3125 3127 3128 3128 3129 3130 3131 3132 3132 3132 3132 3133 3133 3134 3134 3133 3133 3133 3132 3133 3133 3132 3131 3130 3129 3127
3081 3083 3088 3092 3092 3094 3101 3105 3109 3112 3114 3116 3121 3114 3114 3115 3117 3120 3122 3124 3125 3126 3126 3128 3129 3129 3130 3130 3130 3130 3130 3131 3131 3130 3130 3129 3129 3128 3128 3127 3125 3124 3123 3121
3074 3079 3083 3085 3088 3092 3095 3097 3100 3103 3108 3110 3111 3112 3113 3113 3117 3119 3120 3121 3123 3124 3124 3125 3125 3126 3127 3127 3127 3127 3128 3128 3128 3127 3126 3126 3125 3124 3122 3120 3118 3116 3114 3112
3067 3073 3078 3082 3087 3085 3086 3091 3096 3100 3103 3101 3107 3104 3107 3110 3113 3115 3116 3117 3118 3119 3120 3121 3122 3123 3123 3123 3122 3122 3122 3121 3121 3121 3120 3118 3116 3115 3112 3109 3108 3106 3103 3101
3063 3065 3066 3066 3068 3075 3080 3083 3089 3095 3098 3095 3097 3100 3103 3106 3109 3110 3111 3112 3113 3114 3115 3116 3117 3118 3118 3118 3117 3116 3115 3114 3112 3110 3108 3106 3104 3102 3100 3098 3096 3093 3090 3088
3056 3057 3061 3064 3068 3071 3074 3077 3082 3084 3087 3090 3089 3094 3099 3103 3104 3105 3107 3107 3109 3109 3110 3111 3112 3112 3112 3111 3110 3108 3105 3104 3102 3100 3098 3097 3094 3092 3090 3087 3085 3082 3079 3076
3048 3050 3055 3058 3062 3065 3068 3072 3076 3078 3079 3083 3082 3086 3094 3098 3100 3099 3100 3101 3103 3104 3104 3103 3104 3104 3103 3102 3101 3100 3098 3096 3094 3092 3089 3086 3085 3083 3079 3076 3073 3070 3067 3063
3043 3046 3049 3052 3056 3060 3063 3058 3064 3067 3070 3075 3076 3079 3085 3089 3093 3094 3094 3094 3095 3095 3096 3096 3096 3095 3094 3093 3092 3091 3088 3086 3084 3082 3079 3077 3074 3071 3068 3065 3062 3058 3055 3051
3034 3040 3045 3047 3051 3054 3048 3051 3057 3061 3066 3069 3070 3072 3076 3080 3083 3086 3087 3086 3086 3086 3086 3086 3087 3087 3086 3084 3083 3081 3079 3077 3074 3072 3068 3065 3062 3059 3056 3053 3050 3046 3043 3039
3026 3032 3037 3039 3041 3045 3043 3043 3050 3054 3058 3061 3063 3066 3069 3071 3073 3076 3077 3077 3078 3077 3076 3076 3076 3076 3076 3073 3071 3070 3068 3066 3064 3061 3058 3054 3050 3046 3043 3039 3036 3032 3028 3025
3019 3025 3031 3034 3037 3038 3035 3039 3044 3049 3049 3053 3056 3060 3061 3063 3064 3068 3069 3070 3069 3070 3069 3067 3066 3065 3063 3062 3060 3059 3057 3055 3052 3050 3047 3043 3039 3036 3032 3028 3024 3019 3015 3011
3012 3018 3021 3025 3028 3027 3029 3032 3037 3043 3045 3046 3052 3054 3056 3057 3058 3060 3061 3062 3062 3062 3060 3059 3058 3056 3054 3052 3049 3047 3045 3042 3039 3037 3033 3029 3025 3022 3017 3013 3009 3003 2999 2995
3009 3014 3018 3021 3023 3024 3023 3029 3032 3035 3036 3040 3044 3047 3049 3051 3052 3053 3053 3054 3054 3053 3052 3049 3048 3046 3044 3041 3038 3036 3034 3029 3027 3024 3021 3016 3013 3009 3004 2999 2995 2989 2984 2979
3006 3006 3009 3014 3014 3018 3018 3022 3024 3027 3031 3034 3035 3038 3041 3044 3045 3046 3045 3045 3044 3043 3041 3039 3037 3035 3034 3031 3027 3024 3021 3017 3014 3011 3007 3003 3000 2996 2991 2986 2982 2977 2971 2966
2996 2998 3001 3005 3009 3011 3013 3015 3019 3023 3026 3027 3029 3032 3034 3036 3036 3036 3035 3035 3034 3033 3031 3028 3025 3023 3021 3019 3015 3011 3006 3001 2998 2995 2993 2989 2985 2982 2978 2974 2968 2964 2960 2955
2990 2993 2994 2997 3001 3004 3008 3010 3012 3016 3018 3020 3022 3023 3024 3025 3026 3025 3025 3025 3023 3021 3019 3017 3014 3011 3009 3006 3004 3000 2994 2988 2985 2981 2978 2974 2970 2967 2963 2959 2955 2951 2947 2942
2979 2983 2987 2989 2995 2999 3002 3004 3007 3009 3011 3012 3014 3014 3014 3015 3015 3015 3015 3013 3012 3009 3007 3004 3001 2998 2996 2992 2990 2986 2980 2974 2970 2967 2963 2958 2954 2951 2948 2944 2942 2939 2935 2930